Temp
65 66 66 67 66 66 66 66 66 66 66 66 66 65 65 65 66 64 60 67 69 71 71 68 68 70 69 63 64 61 53 48 49 50 52 53 54 54 56 57 54 56 57 58 62
63 66 66 67 66 66 66 66 66 66 65 65 65 64 65 65 61 57 68 71 72 70 67 66 64 67 63 61 61 55 51 53 57 54 52 54 53 57 55 53 52 52 56 60 63
63 64 65 66 66 66 66 66 65 65 65 64 64 64 64 65 56 57 70 70 71 69 67 66 66 63 60 61 59 55 52 57 56 57 56 57 54 58 55 50 57 57 55 59 62
62 63 64 65 65 65 66 65 65 64 64 64 64 64 64 63 48 61 69 70 70 68 68 64 64 59 56 56 61 54 59 60 59 59 56 55 57 56 56 57 61 61 59 59 61
61 62 63 64 64 65 65 65 64 63 63 64 64 63 62 54 53 63 68 69 67 65 62 62 61 59 56 58 59 57 59 60 60 59 56 57 57 56 56 56 57 58 59 59 60
60 60 62 63 64 65 65 64 63 63 63 64 64 63 58 47 63 63 64 64 65 63 61 61 60 62 57 55 58 59 58 59 59 57 55 56 53 54 59 56 55 57 58 58 60
60 60 61 62 63 64 64 64 63 63 63 64 64 63 55 52 61 62 64 63 64 64 61 63 61 61 61 55 59 58 53 54 56 56 54 54 50 53 55 54 55 55 56 57 59
56 59 61 62 62 63 63 63 62 62 63 64 63 58 50 61 60 61 62 64 67 65 65 64 66 61 59 59 56 53 52 47 54 54 54 54 45 57 55 55 53 53 53 55 57
57 58 59 61 62 62 61 61 62 62 63 63 57 55 49 61 58 60 61 61 64 65 65 67 62 57 55 50 44 47 43 45 48 55 54 51 46 56 53 53 53 52 53 54 55
56 58 59 61 61 61 60 61 61 61 60 61 60 50 50 49 56 59 59 64 60 60 59 56 54 48 46 49 38 39 42 44 46 50 50 49 47 55 51 51 54 51 51 52 54
55 55 59 61 61 61 59 57 52 50 52 48 48 46 48 54 58 54 58 59 60 56 47 50 44 43 46 50 49 42 41 45 45 52 49 49 51 55 54 48 48 50 50 52 54
54 54 59 61 61 61 60 53 54 55 42 51 53 51 53 54 49 52 59 52 52 46 48 43 41 50 51 52 50 46 42 38 44 48 46 45 46 53 52 52 51 53 51 52 53
53 54 56 60 61 59 57 55 58 61 46 46 51 50 52 55 48 49 55 49 48 43 45 43 46 52 50 47 45 43 43 42 42 43 44 42 45 49 52 50 52 51 52 51 53
52 53 55 59 56 58 55 60 62 59 36 38 44 50 52 53 47 54 56 51 44 43 43 43 48 47 43 44 45 40 48 48 45 43 36 41 33 45 52 49 50 54 50 53 53
52 53 54 58 56 53 57 63 58 55 26 41 42 55 52 50 49 48 53 51 42 41 42 39 42 43 42 44 47 41 49 47 45 40 34 36 34 40 45 45 50 52 50 52 54
51 53 53 53 56 60 60 59 55 34 24 35 42 41 43 43 44 46 49 50 49 45 42 42 44 45 44 46 49 50 45 45 40 36 29 36 36 36 43 50 48 52 54 55 56
51 51 51 54 52 59 58 51 31 26 39 32 34 42 43 38 39 42 43 41 38 33 33 37 38 41 45 42 42 45 38 29 28 25 29 32 32 45 47 49 51 54 56 55 50
51 51 52 53 57 57 54 39 26 34 33 38 39 42 37 41 37 37 40 39 40 39 34 32 30 40 43 42 38 41 42 29 19 20 30 32 31 44 48 52 50 50 49 47 46
51 47 48 52 54 56 44 32 32 37 37 36 39 35 32 40 37 37 39 40 44 41 35 32 33 38 41 43 49 37 37 41 31 16 22 29 35 43 45 48 47 47 46 45 43
42 44 48 54 53 50 39 36 35 41 42 42 33 38 33 36 32 35 37 45 44 43 41 38 31 36 38 44 42 43 47 34 32 19 16 28 30 39 39 49 50 46 47 46 43
42 40 48 54 52 43 34 38 38 43 46 39 33 33 37 36 35 35 36 38 47 40 42 39 37 31 39 37 37 37 37 36 39 31 25 25 34 40 47 51 51 53 51 47 44
38 33 46 53 39 37 33 39 45 41 43 41 40 37 39 39 32 36 33 42 49 47 40 40 36 27 32 36 38 39 42 44 35 30 28 29 36 43 45 46 48 49 46 44 43
33 33 44 48 32 32 36 40 42 40 41 40 38 40 41 39 31 32 36 43 47 47 44 41 33 20 28 36 38 37 38 45 45 33 32 27 38 44 42 43 46 45 44 43 42
33 32 36 38 40 35 34 36 39 41 40 42 40 43 41 38 39 36 35 40 45 49 47 50 36 33 31 35 37 34 34 36 41 35 37 31 41 42 44 46 47 45 44 42 41
34 30 32 31 35 35 37 39 36 36 38 41 36 43 40 32 36 34 36 36 40 45 45 46 38 31 32 39 41 38 39 39 38 44 36 43 40 43 48 48 49 47 43 41 41
31 29 32 29 32 36 36 34 38 37 38 36 37 40 39 35 40 31 36 36 37 37 42 40 28 32 28 34 36 33 40 41 42 43 42 44 41 45 42 42 44 45 43 42 43
37 35 30 31 32 32 35 36 37 41 36 44 41 41 37 40 47 47 47 44 43 42 41 37 30 25 22 32 33 30 36 39 42 46 44 38 47 43 44 45 49 46 44 45 46
MSLP
1003.88 1004.76 1005.47 1006.28 1007.03 1007.83 1008.53 1009.30 1009.95 1010.55 1011.20 1011.79 1012.17 1013.25 1013.88 1014.44 1014.13 1014.59 1014.17 1013.52 1013.74 1013.82 1014.04 1014.40 1014.44 1014.86 1015.14 1016.09 1016.38 1016.86 1017.76 1018.09 1017.92 1017.74 1017.04 1016.76 1016.83 1016.97 1017.09 1017.50 1018.07 1018.32 1018.52 1018.67 1019.34
1003.35 1003.99 1004.81 1005.42 1006.34 1007.18 1007.90 1008.76 1009.40 1010.17 1010.94 1011.51 1012.28 1013.30 1013.98 1014.46 1014.68 1014.51 1013.59 1013.42 1013.70 1013.78 1014.12 1014.44 1014.85 1014.87 1015.58 1016.45 1016.68 1017.16 1017.72 1017.65 1017.45 1017.32 1017.28 1016.91 1016.93 1017.06 1017.34 1017.73 1018.10 1018.47 1018.70 1018.89 1019.67
1002.25 1003.18 1004.12 1004.91 1005.77 1006.67 1007.36 1008.19 1008.95 1009.90 1010.70 1011.57 1012.16 1013.07 1013.90 1014.40 1014.73 1013.64 1013.15 1013.81 1013.78 1013.79 1014.03 1014.36 1015.04 1015.36 1016.12 1016.36 1016.88 1017.21 1017.50 1017.53 1017.44 1016.98 1017.12 1017.21 1016.85 1017.00 1017.30 1017.89 1017.59 1017.78 1018.74 1019.13 1019.59
1001.32 1002.49 1003.46 1004.37 1005.27 1006.09 1006.86 1007.63 1008.56 1009.58 1010.70 1011.60 1012.06 1012.83 1013.55 1013.80 1013.76 1012.48 1012.60 1013.59 1013.79 1013.57 1014.12 1014.65 1015.41 1015.83 1016.34 1016.46 1016.67 1017.20 1017.05 1017.00 1016.96 1016.96 1017.01 1017.36 1017.37 1017.08 1017.16 1016.66 1016.69 1017.16 1017.93 1018.78 1019.26
1000.56 1001.89 1002.87 1003.79 1004.74 1005.48 1006.55 1007.26 1008.29 1009.44 1010.47 1011.21 1011.82 1012.67 1013.55 1013.70 1012.93 1012.40 1012.47 1012.93 1013.93 1013.74 1014.26 1014.84 1015.53 1015.67 1016.13 1016.41 1016.64 1016.82 1016.76 1016.72 1016.48 1016.82 1017.06 1017.09 1017.21 1017.32 1016.84 1016.57 1016.83 1017.53 1018.40 1018.58 1018.92
1000.08 1001.17 1002.29 1003.21 1004.31 1005.13 1006.07 1007.14 1008.23 1009.14 1010.26 1010.93 1011.68 1012.52 1012.95 1013.21 1012.47 1012.36 1012.61 1013.28 1013.75 1014.13 1014.55 1014.97 1015.14 1015.15 1015.98 1016.31 1016.56 1016.51 1016.64 1016.77 1017.00 1017.23 1017.24 1017.53 1017.02 1017.22 1016.43 1016.62 1017.37 1017.79 1018.31 1018.56 1018.81
999.22 1000.43 1001.93 1002.87 1003.87 1004.85 1005.46 1006.95 1008.04 1009.07 1010.25 1010.77 1011.68 1012.19 1012.73 1012.53 1012.48 1012.40 1012.70 1012.94 1013.61 1014.06 1014.61 1015.02 1014.97 1014.92 1015.74 1016.48 1016.60 1016.80 1017.29 1017.41 1017.30 1017.29 1017.53 1017.44 1017.43 1016.83 1016.47 1017.09 1017.63 1018.16 1018.51 1018.74 1018.79
999.09 1000.23 1001.60 1002.55 1003.66 1004.62 1005.18 1006.38 1007.71 1009.00 1010.14 1010.78 1011.79 1012.19 1012.61 1012.28 1012.49 1012.77 1012.88 1013.35 1013.93 1014.16 1014.79 1014.97 1014.70 1015.31 1015.90 1016.42 1016.94 1017.36 1017.68 1017.78 1017.38 1017.43 1017.46 1017.80 1017.38 1016.59 1016.60 1017.14 1017.89 1018.39 1018.72 1018.78 1018.68
999.57 1000.21 1001.44 1002.33 1003.36 1004.28 1005.32 1006.30 1007.50 1008.71 1010.19 1011.11 1012.11 1012.43 1012.74 1012.30 1012.57 1012.85 1012.79 1013.15 1013.97 1014.64 1015.08 1015.08 1015.13 1015.80 1016.32 1016.83 1017.79 1017.93 1017.90 1018.07 1017.80 1017.52 1017.45 1017.81 1017.55 1016.58 1016.69 1017.21 1017.73 1018.24 1018.58 1018.70 1018.69
999.37 1000.01 1001.22 1002.11 1003.07 1003.96 1005.16 1006.39 1007.44 1008.75 1010.41 1011.78 1012.29 1013.04 1012.58 1012.17 1012.51 1012.91 1013.10 1013.33 1014.02 1014.88 1015.46 1015.78 1015.97 1016.24 1016.73 1016.97 1017.21 1018.04 1018.33 1017.99 1017.56 1017.76 1017.57 1017.54 1017.27 1017.07 1017.08 1017.49 1017.42 1017.75 1018.31 1018.70 1018.29
1000.50 1000.30 1001.01 1001.87 1002.75 1003.51 1005.12 1005.69 1007.35 1008.57 1009.71 1010.18 1010.60 1011.30 1011.20 1011.82 1012.19 1013.05 1013.17 1013.73 1014.26 1015.09 1015.91 1016.65 1016.54 1015.77 1016.69 1016.88 1017.44 1017.82 1018.27 1018.08 1017.86 1017.75 1017.80 1017.39 1017.30 1016.97 1017.06 1017.70 1017.76 1017.72 1017.99 1018.08 1017.85
1000.95 1000.79 1000.93 1001.81 1002.51 1003.27 1004.47 1004.77 1005.80 1006.08 1008.84 1010.06 1010.42 1010.90 1011.16 1011.24 1012.38 1013.09 1013.05 1013.78 1014.55 1015.33 1016.44 1017.46 1016.24 1016.82 1017.10 1017.18 1017.48 1018.02 1018.46 1018.58 1018.27 1018.04 1018.32 1017.70 1017.32 1016.84 1016.92 1016.94 1016.95 1017.07 1017.40 1017.31 1017.37
1001.00 1001.36 1000.70 1001.63 1002.34 1003.49 1003.70 1004.90 1005.83 1006.30 1008.64 1010.63 1010.51 1010.80 1010.97 1011.34 1012.20 1012.78 1013.13 1013.76 1014.73 1015.85 1016.19 1016.76 1016.78 1017.20 1017.29 1017.42 1017.68 1017.91 1018.45 1018.75 1018.86 1018.53 1018.43 1018.19 1017.12 1016.79 1016.20 1016.25 1016.33 1016.36 1016.23 1016.77 1016.89
1001.08 1001.48 1001.15 1001.68 1002.94 1003.04 1003.93 1004.77 1005.96 1005.69 1008.69 1010.87 1010.71 1010.42 1010.86 1010.95 1012.40 1012.69 1012.97 1013.48 1015.07 1015.88 1016.98 1017.22 1016.85 1016.98 1017.11 1017.19 1017.66 1018.13 1018.38 1018.85 1019.32 1019.60 1019.28 1018.67 1017.06 1015.59 1015.76 1015.60 1015.38 1015.18 1015.73 1015.77 1015.94
1001.26 1001.40 1001.16 1001.71 1001.33 1002.24 1003.11 1004.03 1004.88 1006.20 1007.80 1009.54 1010.52 1009.86 1010.57 1011.04 1011.77 1012.90 1012.77 1013.26 1014.47 1015.27 1016.31 1016.16 1016.56 1017.04 1016.96 1016.42 1017.44 1018.02 1018.05 1019.08 1019.59 1020.17 1020.36 1019.34 1018.77 1015.09 1014.91 1014.65 1013.91 1014.42 1014.86 1014.83 1014.95
1001.50 1001.40 1001.57 1001.93 1001.96 1002.47 1003.45 1004.44 1005.66 1007.20 1008.08 1009.61 1009.34 1009.89 1010.89 1011.56 1011.84 1012.76 1013.00 1013.36 1014.09 1015.16 1015.80 1016.02 1016.10 1016.39 1016.35 1016.87 1017.11 1017.90 1018.56 1019.50 1020.35 1020.87 1020.71 1018.48 1018.50 1015.35 1014.13 1013.11 1013.65 1013.52 1013.68 1013.77 1014.16
1000.93 1001.18 1001.96 1001.58 1000.95 1002.09 1003.26 1004.90 1006.76 1007.72 1008.15 1009.32 1009.00 1009.53 1010.34 1011.78 1012.33 1012.28 1013.00 1013.57 1013.64 1015.01 1015.69 1016.36 1016.38 1016.13 1016.14 1016.81 1017.21 1017.61 1019.29 1020.96 1021.65 1021.66 1019.51 1018.07 1018.38 1014.17 1013.17 1013.06 1012.87 1012.81 1012.91 1013.08 1013.85
1001.52 1001.18 1001.20 1001.36 1000.71 1002.05 1003.06 1005.30 1006.21 1006.00 1007.00 1007.59 1008.02 1009.72 1010.73 1011.52 1012.56 1012.76 1013.48 1013.78 1013.38 1013.84 1015.21 1015.85 1016.39 1015.46 1015.35 1015.62 1016.14 1017.30 1017.96 1018.53 1020.33 1020.95 1019.52 1018.65 1017.02 1013.27 1012.74 1012.12 1012.32 1012.85 1012.97 1013.33 1013.90
1001.36 1001.21 1001.30 1001.28 1001.39 1001.44 1003.37 1004.55 1003.56 1003.76 1005.25 1006.37 1008.51 1009.63 1010.65 1011.21 1011.51 1012.54 1012.39 1011.84 1012.23 1012.47 1013.38 1014.75 1015.23 1015.03 1014.70 1015.02 1015.28 1016.96 1017.44 1017.54 1019.14 1020.95 1020.12 1017.95 1015.70 1013.47 1012.57 1012.41 1012.40 1012.61 1013.28 1013.17 1013.63
1001.75 1001.38 1000.93 1001.43 1001.66 1001.12 1002.86 1002.42 1003.02 1002.79 1004.16 1005.58 1006.69 1007.92 1008.78 1010.05 1010.69 1011.17 1011.57 1010.48 1011.08 1011.72 1012.17 1013.36 1014.73 1015.01 1015.02 1014.90 1015.22 1015.15 1015.96 1017.47 1018.39 1019.95 1019.64 1017.45 1015.64 1013.06 1012.33 1012.23 1011.96 1012.37 1012.63 1012.66 1013.32
1001.92 1001.42 1000.25 1000.83 1001.41 1001.36 1001.36 1001.88 1002.34 1002.39 1002.73 1004.31 1005.61 1006.84 1007.66 1008.69 1009.80 1010.29 1010.13 1010.01 1010.56 1011.59 1012.40 1013.10 1013.66 1015.71 1015.32 1014.66 1014.47 1015.17 1015.35 1016.15 1016.75 1018.11 1018.12 1017.10 1014.40 1012.19 1011.36 1011.47 1011.59 1011.36 1011.72 1012.57 1013.15
1001.59 1001.52 1000.78 1000.29 1000.50 1001.41 1001.47 1001.63 1001.60 1002.51 1002.57 1003.62 1004.56 1005.47 1006.52 1008.08 1009.52 1010.16 1009.48 1009.03 1009.28 1010.62 1011.94 1012.60 1013.52 1015.33 1015.09 1014.62 1014.27 1014.42 1014.40 1014.78 1015.51 1016.39 1016.70 1016.30 1012.88 1011.42 1010.88 1011.08 1011.48 1011.52 1012.10 1012.73 1013.64
1002.11 1002.06 1001.13 1000.89 1000.37 1001.29 1001.94 1001.60 1001.55 1002.06 1002.24 1003.56 1004.41 1004.50 1005.37 1007.27 1009.23 1009.29 1009.10 1009.19 1009.32 1009.86 1010.08 1011.37 1012.80 1014.89 1015.26 1015.36 1014.53 1013.90 1013.78 1013.30 1013.91 1014.73 1014.89 1014.64 1011.61 1010.83 1010.75 1010.98 1011.44 1011.94 1012.45 1013.01 1013.44
1002.61 1002.73 1001.94 1000.94 1000.84 1001.42 1001.88 1001.70 1001.87 1002.01 1002.37 1003.04 1003.78 1003.96 1005.32 1006.83 1007.13 1008.16 1008.84 1009.15 1009.22 1009.32 1009.63 1010.44 1012.13 1013.23 1013.55 1013.16 1013.64 1013.80 1013.81 1013.75 1013.34 1013.77 1013.39 1012.67 1011.27 1010.90 1010.63 1010.77 1011.09 1011.84 1012.37 1013.03 1013.90
1002.64 1002.75 1002.64 1001.65 1001.44 1001.67 1002.11 1001.63 1002.20 1002.12 1002.16 1002.53 1003.31 1003.12 1003.96 1006.21 1007.18 1007.63 1008.52 1009.28 1009.72 1009.56 1009.91 1010.35 1011.83 1012.98 1013.28 1012.90 1012.31 1012.56 1013.12 1013.29 1013.20 1012.62 1012.49 1010.63 1011.03 1010.57 1010.47 1010.43 1010.86 1011.30 1012.33 1012.99 1013.58
1002.57 1003.02 1003.26 1002.52 1002.00 1001.66 1001.60 1001.64 1001.36 1001.89 1002.06 1002.24 1001.95 1002.71 1003.59 1004.52 1004.92 1006.38 1007.43 1008.30 1008.81 1010.59 1010.51 1010.95 1011.88 1012.72 1013.66 1013.36 1012.75 1013.13 1012.44 1012.39 1012.23 1011.71 1011.36 1010.04 1009.43 1009.70 1010.21 1010.40 1010.79 1011.03 1011.83 1012.46 1012.57
1002.71 1003.42 1002.88 1002.24 1001.76 1001.58 1000.79 1000.64 1000.37 1001.23 1002.13 1001.59 1001.96 1002.72 1003.22 1003.72 1004.35 1005.17 1006.30 1007.36 1007.98 1009.00 1010.20 1011.10 1012.20 1013.29 1014.22 1014.18 1013.72 1012.74 1010.68 1011.14 1010.72 1010.35 1009.71 1009.99 1007.44 1009.32 1009.79 1010.10 1009.82 1010.21 1010.89 1011.16 1011.24
Wind_Speed
31 31 30 27 27 25 23 21 22 21 20 21 17 13 9 6 4 3 5 6 3 9 4 4 2 5 5 4 4 3 4 4 4 4 4 1 3 1 2 7 1 2 5 2 11
32 32 30 28 26 25 25 21 23 21 19 20 19 15 12 9 3 4 4 1 4 9 5 6 4 6 4 2 2 5 4 7 3 2 4 2 2 7 4 4 2 1 4 9 15
35 31 30 28 27 26 25 24 24 21 20 19 18 17 15 9 2 7 9 6 6 6 5 2 7 5 2 3 2 3 5 5 5 2 1 5 2 6 7 3 8 10 8 13 15
32 31 31 28 27 27 24 24 25 23 20 18 18 17 16 10 11 4 16 12 4 5 6 7 4 7 4 5 4 4 5 5 3 1 4 3 4 4 7 6 4 9 15 15 19
33 30 29 29 27 27 24 25 25 25 22 21 20 19 9 4 6 1 12 14 4 6 7 7 7 5 8 7 5 4 5 5 2 7 5 2 8 7 8 2 3 10 13 16 16
29 27 29 27 27 27 24 26 26 25 22 21 20 18 5 10 3 2 7 10 6 5 5 5 9 5 5 5 8 6 5 2 4 4 2 5 3 2 5 6 6 11 14 12 15
35 30 28 26 26 27 27 30 28 26 23 22 19 6 3 9 2 2 8 8 8 5 6 2 1 4 6 5 2 4 1 3 6 4 4 2 6 9 4 4 8 9 8 9 10
8 19 26 26 26 26 27 31 29 27 24 22 10 4 4 1 2 5 5 6 6 3 4 3 4 6 5 5 5 5 2 6 3 6 3 6 10 11 6 9 9 9 7 8 9
3 25 21 27 25 28 28 26 27 28 24 20 6 5 3 4 5 3 4 12 10 5 4 2 4 3 3 7 3 2 4 9 7 6 4 6 6 8 6 8 9 9 9 9 8
9 26 23 27 26 29 28 29 27 27 18 9 3 5 5 7 6 6 2 15 9 9 5 3 3 4 2 9 9 7 11 4 13 5 5 6 8 11 4 7 12 9 8 9 10
10 3 23 27 26 32 25 17 15 11 12 5 13 3 5 5 5 3 5 9 7 5 9 0 4 16 9 8 3 6 4 15 4 7 5 11 14 10 6 5 8 8 9 12 13
10 11 23 27 28 35 21 9 13 10 12 5 16 5 3 4 8 6 6 8 11 13 8 3 18 8 7 4 5 4 4 4 5 3 4 4 10 10 6 7 8 12 9 12 8
8 7 6 27 29 23 20 13 14 13 7 2 6 5 6 6 5 11 8 5 13 11 16 12 3 8 7 3 5 5 4 2 4 1 3 2 10 10 7 6 6 8 9 6 11
2 7 9 24 23 18 15 16 21 5 6 7 7 4 4 7 4 4 6 9 5 13 11 5 6 20 8 17 9 8 7 3 2 2 5 2 8 12 11 11 11 13 9 12 11
3 7 11 25 12 18 12 14 7 7 7 13 6 4 7 10 14 6 2 4 9 8 9 7 11 11 17 10 11 4 7 6 4 3 4 4 4 6 6 10 12 10 11 12 14
2 3 7 5 9 17 17 13 4 4 5 10 8 9 10 2 2 6 6 4 6 7 2 7 3 11 8 8 13 9 7 7 5 3 4 9 6 6 9 12 4 8 11 14 15
4 3 3 3 14 17 17 7 8 7 6 8 9 13 18 7 4 7 15 8 8 8 9 3 3 2 5 7 4 12 15 3 2 3 14 3 5 18 7 7 7 11 12 11 7
3 3 2 5 10 20 15 11 7 11 10 5 10 18 12 13 3 4 14 13 9 6 8 11 9 11 5 6 6 12 15 8 9 5 7 4 10 11 11 10 7 8 7 7 8
1 1 1 7 11 18 17 18 13 15 10 11 15 20 6 13 9 8 19 23 17 13 10 7 8 3 4 5 13 6 11 5 5 2 3 7 10 9 9 10 8 10 7 10 8
2 1 5 12 12 18 16 18 4 7 14 21 9 16 17 23 8 13 20 20 16 11 2 6 3 1 2 5 1 10 11 4 1 2 5 6 6 11 3 11 11 9 13 11 7
2 3 1 16 11 12 19 13 6 5 20 10 8 9 11 19 10 17 18 3 20 10 4 6 5 0 6 9 10 4 6 4 5 7 7 8 10 9 11 12 12 14 10 6 8
2 2 1 12 10 9 12 7 6 7 3 6 6 6 17 20 7 16 16 12 16 15 12 6 6 4 8 2 2 2 8 15 7 13 5 3 13 3 8 8 7 10 6 6 8
2 2 2 10 6 11 6 4 3 8 10 7 5 5 7 14 5 6 7 6 15 21 23 10 3 4 5 3 3 8 7 12 15 4 13 7 20 4 5 6 6 7 6 6 7
2 3 1 1 3 8 9 18 7 1 5 6 7 7 11 11 2 13 8 6 13 18 10 14 4 10 14 10 8 3 3 3 10 11 16 8 19 6 5 8 6 6 5 6 6
1 1 2 3 11 9 12 14 18 7 2 7 3 14 12 6 15 7 7 4 1 8 7 11 18 7 1 6 8 9 9 9 7 15 9 26 16 8 12 8 6 5 5 7 8
3 3 1 1 2 10 17 13 30 11 12 12 11 13 8 11 17 10 11 7 9 2 9 1 3 5 0 3 5 5 13 13 17 20 15 22 21 5 2 3 5 8 8 9 12
2 1 1 1 2 4 12 19 29 15 3 11 12 11 11 8 14 9 8 8 11 13 13 9 7 5 7 3 3 4 15 15 12 18 16 18 20 5 7 9 10 9 12 15 15
Wind_Direction
203 199 190 186 184 187 189 194 187 180 178 173 170 178 183 192 85 318 192 185 187 164 120 134 82 118 116 77 72 107 88 155 201 170 266 97 184 45 119 118 210 179 157 211 128
206 197 191 188 187 190 188 192 184 183 173 166 164 166 170 144 64 278 277 232 173 147 111 145 107 80 63 81 51 100 128 193 197 208 307 272 215 173 142 127 236 188 40 121 145
191 196 191 188 186 191 188 187 181 172 165 163 163 166 157 143 47 237 212 237 122 149 134 115 110 87 127 126 159 165 187 183 232 250 109 291 261 180 131 218 211 193 159 155 162
189 192 188 187 184 187 186 179 165 155 157 161 148 147 152 158 197 197 183 188 154 101 116 109 122 127 138 155 176 157 202 178 230 341 17 310 310 230 194 216 256 195 165 156 171
186 189 192 186 183 180 184 173 153 151 152 150 142 145 145 189 242 222 194 165 138 103 149 142 156 140 168 171 128 187 180 185 284 343 298 275 240 236 236 276 69 129 158 176 180
187 182 193 182 182 181 173 168 153 148 150 145 143 153 131 185 245 167 141 132 134 115 131 151 178 168 124 165 178 201 175 159 233 252 306 273 261 166 259 133 126 153 180 183 186
177 176 187 180 180 183 168 167 152 147 150 145 143 140 69 189 26 140 155 152 145 138 125 103 112 133 119 128 152 95 172 217 229 166 257 174 281 215 187 142 164 186 191 189 192
88 168 182 176 177 175 163 159 153 151 151 142 125 93 198 163 122 97 131 111 131 83 75 150 80 113 132 117 56 130 132 224 187 153 258 131 274 271 170 156 193 203 205 205 199
143 174 185 176 173 166 157 151 152 146 143 129 90 109 234 92 132 161 128 142 130 103 70 88 66 126 83 112 83 255 206 216 298 205 141 167 269 269 169 187 201 205 209 210 227
28 170 180 176 170 160 154 147 149 138 127 89 97 134 175 191 145 135 120 148 131 113 77 45 92 133 139 171 204 184 208 216 223 213 193 214 239 283 260 199 217 204 208 220 219
45 70 179 176 167 152 143 139 149 164 149 175 159 135 127 144 109 108 151 104 113 130 175 19 179 199 174 186 88 157 179 233 250 213 200 237 232 237 250 240 257 232 216 225 226
41 357 182 179 166 155 154 162 155 127 122 26 141 100 139 161 115 157 144 123 155 177 123 64 225 179 162 124 194 159 180 247 296 302 188 279 252 241 212 231 217 225 234 224 225
24 337 237 176 163 157 172 148 135 122 110 123 183 131 150 123 128 173 136 114 148 148 176 203 164 187 197 179 197 215 179 155 240 295 249 343 259 244 248 228 229 230 221 220 225
355 337 322 181 159 161 171 155 151 106 87 161 179 202 125 134 116 153 163 133 152 164 157 210 200 187 173 219 177 214 147 128 46 312 246 200 278 228 224 232 219 227 214 226 223
104 284 328 197 153 174 141 155 124 73 169 151 159 140 151 158 135 229 184 66 151 152 143 208 172 178 208 197 175 169 146 165 158 102 360 232 268 243 166 238 235 227 223 228 227
87 242 324 196 168 154 142 129 124 93 193 186 144 150 135 163 109 112 136 62 139 119 83 191 176 167 188 172 183 142 59 32 41 107 245 213 194 234 213 229 230 228 230 224 230
327 346 290 248 167 143 141 147 110 185 141 181 167 164 161 144 108 152 177 157 154 131 185 89 215 240 152 140 124 162 152 172 213 222 236 147 166 244 262 238 229 216 235 237 232
283 328 296 240 174 147 144 147 168 170 186 139 133 142 169 135 173 156 155 184 228 142 136 169 206 177 187 185 166 190 183 159 196 221 252 79 228 247 217 249 222 256 259 276 241
324 200 212 227 222 147 146 174 197 174 143 124 116 153 139 185 139 145 191 198 188 177 156 142 243 34 159 149 153 196 209 184 108 29 49 207 272 300 248 265 255 252 256 246 237
183 179 210 172 194 154 166 188 154 143 117 139 148 184 173 178 142 183 183 202 194 177 38 190 127 187 118 99 172 170 156 171 136 199 259 274 265 222 241 227 238 240 234 232 197
190 192 230 166 180 168 186 176 129 160 135 141 155 156 172 180 164 186 190 255 187 157 124 154 114 348 120 202 173 149 171 195 161 159 212 253 258 213 213 221 236 238 254 264 196
124 210 11 168 181 178 180 175 136 142 136 122 104 95 174 170 153 194 203 195 184 164 188 185 124 157 207 289 91 232 190 198 194 218 228 183 258 215 245 263 275 272 226 171 156
115 272 329 203 177 179 159 199 146 146 161 151 128 137 140 161 172 187 172 193 180 172 187 168 186 77 8 1 239 195 209 204 210 80 210 194 258 201 238 244 255 272 244 213 167
117 157 290 287 55 158 175 191 181 83 140 136 128 112 119 169 178 184 178 194 182 195 134 149 121 168 213 233 126 199 205 246 197 219 230 228 253 297 284 264 307 270 227 181 184
41 67 8 176 210 161 168 187 188 159 162 145 73 163 152 136 189 183 153 100 96 182 152 162 206 161 279 227 187 184 186 188 201 227 195 246 248 215 247 266 247 239 188 179 188
127 130 204 329 30 195 183 191 190 189 158 199 158 172 157 156 192 157 142 170 169 125 171 326 229 114 195 327 161 188 202 200 211 230 237 252 258 147 149 178 225 220 186 212 205
48 349 187 59 15 206 197 189 203 176 301 192 140 145 178 191 179 169 160 129 160 168 179 154 130 104 241 135 154 268 209 201 214 216 222 236 243 156 225 245 241 202 195 211 216